Вернуться в каталог

STARLINK-30135

АктивенСвязьVLEO
NORAD 56842·PAYLOAD·🇺🇸 United States

Запущен Jun 4, 2023 с Cape Canaveral Space Force Station

Loading…

Ближайшие Пролёты (ближайшие 24 часа)

TLE

СвежийSource: CelesTrak SupGP

Эпоха: Sep 15, 2026, 02:25 UTC

1 56842C 23079V   26258.10118056  .00052464  00000+0  18994-2 0  2582
2 56842  42.9998 117.4385 0000997 279.8319  99.3435 15.27567460    18

Отслеживайте STARLINK-30135 в реальном времени с AllMySat

Download on the App Store